Volver al catálogo

COSMOS 2251 DEB

ActivoLEO
NORAD 34388·DEBRIS·🇷🇺 Russia

Lanzado Jun 16, 1993 desde Plesetsk Cosmodrome

Loading…

Próximos Pases (próximas 24 horas)

TLE

ActualizadoSource: Space-Track

Época: Sep 14, 2026, 11:13 UTC

1 34388U 93036QD  26257.46738787  .00001476  00000-0  38265-3 0  9994
2 34388  74.0370  65.3341 0012797  48.4982 342.5036 14.50633740921527

Sigue COSMOS 2251 DEB en tiempo real con AllMySat

Download on the App Store